ARIANE 5 DEB (SYLDA), 54744

Orbit data source: Space-Track

ARIANE 5 DEB (SYLDA), 54744 is space debris in HEO originally from a launch on Tue, 13 Dec 2022 UTC launched from the French Guiana (FRGUI). Debris objects in space refer to the collection of defunct objects orbiting the Earth. Examples of debris include non-operational satellites, rocket bodies, and fragments generated from explosions, collisions, or faulty payload assembly.

Loading next visibility...
Identifier
54744, 2022-170D
Orbit
HEO
Country
Flag of FRFR
Related business
Manufacturer
ADS/Bremen
Mission
Spacecraft
Bus & Motor
SYLDA 5, Unknown motor
Mass
440 kg wet, 440 kg dry
Launch date (UTC)
2022-12-13 (3 years ago)
Launch vehicle
Unknown
Launch site
French Guiana (FRGUI)
Object type
Payload
Rocket body
Debris
Shape & HBR
Cyl, 2.8 m
Radar Cross Section
27.391 m², Large (>1 m²)

Expand to show TLE details & history
Last TLE update: 12 hours ago

TLE from 12 hours ago
0 ARIANE 5 DEB (SYLDA)
1 54744U 22170D   26073.15227486  .00253688  00000-0  67398-2 0  9996
2 54744   6.3387  11.0673 5531872 211.1707  99.1612  4.85697162 44364
Epoch: 2026-03-14T03:39Z
TLE epoch observation values (Epoch: 2026-03-14T03:39:16.547Z)
Latitude
-0.00001°
Longitude
144.47306°
Altitude
13,035.543 km
Speed
3.742 km/s
True Right ascension
00h 44m 16s
True Declination
0° 00' 00"
Sunlit
Object was in daylight at epoch
Visualization orbit readout
Latitude
Unknown
Longitude
Unknown
Altitude
Unknown
Speed
Unknown
Apparent Right ascension
Unknown
Apparent Declination
Unknown
Sunlit
N/A
Visualization observer readout
Local Sidereal Time
20:18:30
Azimuth
Unknown
Elevation
Unknown
Doppler factor
Unknown
Orbital elements
Apogee altitude
16,505.863 km
Perigee altitude
205.013 km
Semi-major axis
14,733.575 km
Eccentricity
0.55319
Inclination
6.3387°
RAAN
11.0673°
Arg. of periapsis
211.1707°
True anomaly
148.85942°
Mean anomaly
99.1612°
Eccentric anomaly
125.09446°
Mean motion
1.21362 °/min
Orbital period
296.63 mins
BSTAR
0.0067398
Loading maneuver chart data...
Computing Atmospheric mass density...
Loading historical data...
Loading historical data...
Loading historical data...
Loading historical data...
Loading historical data...
Loading historical data...
Loading historical data...
Other satellites on launch #170 in the year 2022 (2022-12-13 UTC)

Documentation

Showing up to 5 results
|